Regional Weather Roundup
Issued by NWS Upton, NY

Current Version | Previous Version | Text Only | Print | Product List | Glossary On
Versions: 1 2 3 4 5 6 7 8 9 10 11 12 13 14 15 16 17 18 19 20 21 22 23 24 25 26 27 28 29 30 31 32 33 34 35 36 37 38 39 40 41 42 43 44 45 46 47 48 49 50
000
ASUS41 KOKX 042008
RWROKX

REGIONAL WEATHER ROUNDUP
NATIONAL WEATHER SERVICE NEW YORK NY
400 PM EDT SAT JUL 04 2015

NOTE: "FAIR" INDICATES FEW OR NO CLOUDS BELOW 12,000 FEET WITH NO
SIGNIFICANT WEATHER AND/OR OBSTRUCTIONS TO VISIBILITY.

NYZ071-072-176-178-NJZ106-104-042100-
NEW YORK CITY METRO AREA


CITY           SKY/WX    TMP DP  RH WIND       PRES   REMARKS
CENTRAL PARK   CLOUDY    74  58  57 E6        29.97F
LAGUARDIA APRT CLOUDY    74  60  61 NE7       29.94F
KENNEDY INTL   CLOUDY    77  55  46 NE12      29.95S
NEWARK/LIBERTY CLOUDY    75  56  51 NE9       29.94F
BRNX BOT. GARD   N/A    N/A N/A N/A SE7       29.95S
TETERBORO      LGT RAIN  76  57  51 VRB5      29.93F
$$

NYZ177-179-078>081-042100-
LONG ISLAND NEW YORK

CITY           SKY/WX    TMP DP  RH WIND       PRES   REMARKS
FARMINGDALE    CLOUDY    70  62  76 N10       29.95S
ISLIP          LGT RAIN  71  61  70 N12       29.93S
SHIRLEY        CLOUDY    73  61  65 VRB6      29.94F
WESTHAMPTON    LGT RAIN  73  62  68 NE10      29.95F
MONTAUK POINT    N/A     71  58  63 NE6       29.97S
$$

NYZ052-065-067-042100-
HUDSON VALLEY

CITY           SKY/WX    TMP DP  RH WIND       PRES   REMARKS
WHITE PLAINS   CLOUDY    74  57  55 NE5       29.96R
NEWBURGH       PTSUNNY   70  61  73 CALM      29.98F
MONTGOMERY     CLOUDY    71  62  73 CALM      29.97S
POUGHKEEPSIE   CLOUDY    70  61  73 W3        29.96F
ALBANY         CLOUDY    68  62  81 VRB3      29.99R
$$

NJZ001-105-106-008-010-013-015-019>022-104-042100-
NEW JERSEY

CITY           SKY/WX    TMP DP  RH WIND       PRES   REMARKS
NEWARK/LIBERTY CLOUDY    75  56  51 NE9       29.94F
TETERBORO      LGT RAIN  76  57  51 VRB5      29.93F
CALDWELL       CLOUDY    74  57  55 VRB5      29.96S
MORRISTOWN     MOSUNNY   75  63  64 NE9       29.96F
SOMERVILLE     MOSUNNY   77  55  46 NE7       29.93S
SUSSEX         CLOUDY    70  58  65 N6        29.97F
ANDOVER          N/A     71  62  73 VRB5      29.97F
TRENTON        PTSUNNY   73  61  65 E8        29.93F
MILLVILLE      CLOUDY    81  62  52 CALM      29.91S
ATLANTIC CITY  PTSUNNY   79  63  57 NE12      29.91S
WRIGHTSTOWN    PTSUNNY   75  61  61 NE12      29.91F
TOMS RIVER     CLOUDY    73  57  56 N12       29.93F
BELMAR         CLOUDY    72  54  53 NE10G16   29.94F
$$

PAZ047>061-062-071-042100-
EASTERN PENNSYLVANIA

CITY           SKY/WX    TMP DP  RH WIND       PRES   REMARKS
PHILADELPHIA   PTSUNNY   75  61  61 NE12      29.92F
ALLENTOWN      CLOUDY    74  59  59 E6        29.95F
SCRANTON       CLOUDY    67  62  84 NE6       29.98S HAZE
$$

CTZ002-004>006-009-010-012-RIZ004-006-007-MAZ004-011-015-042100-
SOUTHERN NEW ENGLAND
 IN CT

CITY           SKY/WX    TMP DP  RH WIND       PRES   REMARKS
BRADLEY INTL   LGT RAIN  68  60  75 N9        29.95F
HARTFORD       CLOUDY    71  62  73 VRB7      29.95F
DANBURY        CLOUDY    70  53  54 E6        29.98R
WTRBRY/OXFORD  CLOUDY    70  57  64 CALM      29.99S
BRIDGEPORT     CLOUDY    72  62  71 E6        29.95S
MERIDEN        LGT RAIN  72  59  63 E3        29.95F
NEW HAVEN      CLOUDY    72  62  71 N9        29.95F
CHESTER        LGT RAIN  70  61  73 E5        29.97F
GROTON         CLOUDY    70  51  51 E8        29.94F
WILLIMANTIC    LGT RAIN  70  60  70 N6        29.96F

 IN RI

CITY           SKY/WX    TMP DP  RH WIND       PRES   REMARKS
PROVIDENCE     CLOUDY    74  53  48 CALM      29.96F
BLOCK ISLAND   SUNNY     68  52  56 NE8       29.96F
WESTERLY       CLOUDY    72  51  47 E8        29.96F

 IN MA

CITY           SKY/WX    TMP DP  RH WIND       PRES   REMARKS
BOSTON         CLOUDY    67  58  72 E7        29.97F
WORCESTER      LGT RAIN  66  58  75 N5        29.99F
WESTFIELD      LGT RAIN  66  61  84 NE7       29.97F
PROVINCETOWN   CLOUDY    72  14  11 E3        29.98S
NANTUCKET      CLOUDY    67  51  56 NE12      29.95S
$$

ANZ330-335-338-340-345-350-353-355-042100-
COASTAL MARINE OBSERVATIONS


STATION/POSITION TIME  SKY/WX   TEMP    WIND        PRES    VSBY  WAVE
                                AIR SEA DIR/SP/G                  HT/PER
                 (UTC)          (F)     (DEG/KT/KT) (MB)    (MI)  (FT/S)
NY HARB ENTRANCE 1950            71 69  360/ 12/ 14 1013.5          2/ 8
4S FIRE IS       1903               70                N/A           3/ 8
20S FIRE ISLAND  1950            69 69   50/ 12/ 14 1012.7          3/ 8
GREAT SOUTH BAY  1930            72 76   40/  6/ 12   N/A
23SW MTP         1950            67 69   50/ 12/ 14 1013.6          3/ 8
HUDSON CANYON    NOT AVBL
KINGS POINT      1900            71 66   60/  2/  4 1013.4
CENTRAL LI SOUND NOT AVBL
EASTERN LI SOUND 1900            68 63   80/ 10/ 14   N/A
ROBBINS REEF     1900            70      10/  5/  6 1013.0
$$


>>>>>>>>>>>>>>>>>>>>>>>>>>>> KEY <<<<<<<<<<<<<<<<<<<<<<<<<<<
>                                                          <
>     SKY/WX - SKY CONDITION/PRESENT WEATHER               <
>     TMP    - TEMPERATURE IN FAHRENHEIT                   <
>     DP     - DEWPOINT IN FAHRENHEIT                      <
>     RH     - RELATIVE HUMIDITY IN PERCENT                <
>     WIND   - DIRECTION AND SPEED IN MPH                  <
>     PRES   - MEAN SEA LEVEL PRESSURE IN INCHES OF HG     <
>     WCI    - WIND CHILL INDEX                            <
>     VSB    - VISIBILITY IN MILES                         <
>     HX     - HEAT INDEX                                  <
>     TC     - TEMPERATURE IN CELSIUS                      <
>     VRB    - VARIABLE WIND DIRECTION                     <
>                                                          <
>>>>>>>>>>>>>>>>>>>>>>>>>>>> KEY <<<<<<<<<<<<<<<<<<<<<<<<<<<




USA.gov is the U.S. government's official web portal to all federal, state and local government web resources and services.